Regional Weather Roundup
Issued by NWS

Home | Current Version | Previous Version | Text Only | Print | Product List | Glossary Off
Versions: 1 2 3 4 5 6 7 8 9 10 11 12 13 14 15 16 17 18 19 20 21 22 23 24 25 26 27 28 29 30 31 32 33 34 35 36 37 38 39 40 41 42 43 44 45 46 47 48 49 50

000
ASUS43 KIND 010359
RWRIN

WEATHER ROUNDUP FOR INDIANA
NATIONAL WEATHER SERVICE INDIANAPOLIS IN
1100 PM EST SAT JAN 31 2015

NOTE: "FAIR" INDICATES FEW OR NO CLOUDS BELOW 12,000 FEET WITH NO
SIGNIFICANT WEATHER AND/OR OBSTRUCTIONS TO VISIBILITY.

* - STATION DOES NOT REPORT WEATHER SUCH AS PRECIPITATION OR FOG.

+ - STATION NOT QUALITY CONTROLLED BY THE NATIONAL WEATHER SERVICE.
    USE DATA WITH CAUTION...ESPECIALLY DEWPOINT AND RELATIVE
    HUMIDITY OBSERVATIONS.

INZ001>003-010>013-019-020-010500-
NORTHWEST INDIANA

CITY           SKY/WX    TMP DP  RH WIND       PRES   REMARKS
GARY /AIRPORT/ LGT SNOW  34  30  86 CALM      30.16S VSB 3/4
VALPARAISO     NOT AVBL

$$

LMZ046-743>745-010500-
SOUTHERN LAKE MICHIGAN

STATION/POSITION TIME  TEMP WIND        PRES
                       AIR  DIR/SP/G
                 (UTC) (F)  (DEG/KT/KT) (MB)
MICHIGAN CITY    0300   32  210/  3/  3   N/A

$$

INZ004-005-014>016-021>024-010500-
NORTH CENTRAL INDIANA

CITY           SKY/WX    TMP DP  RH WIND       PRES   REMARKS
GOSHEN         LGT SNOW  33  31  92 S5        30.15F VSB 1   WCI  29
SOUTH BEND     LGT SNOW  33  32  96 SW5       30.16S FOG     WCI  29

$$

INZ006>009-017-018-025>027-010500-
NORTHEAST INDIANA

CITY           SKY/WX    TMP DP  RH WIND       PRES   REMARKS
ANGOLA *+      CLOUDY    32  28  86 CALM      30.15S
FORT WAYNE     LGT SNOW  33  31  92 SW6       30.18S FOG     WCI  28

$$

INZ028-029-035-036-043>045-051>053-010500-
WEST CENTRAL INDIANA

CITY           SKY/WX    TMP DP  RH WIND       PRES   REMARKS
GREENCASTLE +  MIX PCPN  32  30  93 E3        30.19F
LAFAYETTE      MIX PCPN  32  31  96 S3        30.19F FOG
TERRE HAUTE    MIX PCPN  33  31  92 SE5       30.21S FOG     WCI  29

$$

INZ030>032-037>040-046>048-054>057-064-065-010500-
CENTRAL INDIANA

CITY           SKY/WX    TMP DP  RH WIND       PRES   REMARKS
INDIANAPOLIS   LGT SNOW  30  30 100 S6        30.21S FOG     WCI  24
-EAGLE CREEK   LGT SNOW  31  30  96 CALM      30.20F FOG
KOKOMO *+      CLOUDY    34  28  80 SW12      30.19S WCI  25
MT COMFORT *+  CLOUDY    32 N/A N/A S3        30.21F
SHELBYVILLE    FRZ RAIN  33  30  88 SE5       30.21F FOG     WCI  29

$$

INZ033-034-041-042-049-050-058-059-010500-
EAST CENTRAL INDIANA

CITY           SKY/WX    TMP DP  RH WIND       PRES   REMARKS
MUNCIE         LGT SNOW  33  30  88 SW8       30.19S FOG     WCI  26

$$

INZ060-061-067>069-081>083-085>088-010500-
SOUTHWEST INDIANA

CITY           SKY/WX    TMP DP  RH WIND       PRES   REMARKS
EVANSVILLE     CLOUDY    40  25  55 E6        30.18F
HUNTINGBURG *+ CLOUDY    37  25  60 E7        30.19F

$$

INZ062-063-066-070>080-084-089>092-010500-
SOUTH CENTRAL AND SOUTHEAST INDIANA

CITY           SKY/WX    TMP DP  RH WIND       PRES   REMARKS
BLOOMINGTON    CLOUDY    33  30  88 SE3       30.20F
SEYMOUR +      CLOUDY    34  30  86 SE5       30.22F WCI  30

$$



USA.gov is the U.S. government's official web portal to all federal, state and local government web resources and services.